Regional Weather Roundup
Issued by NWS

Home | Current Version | Previous Version | Graphics & Text | Print | Product List | Glossary Off
Versions: 1 2 3 4 5 6 7 8 9 10 11 12 13 14 15 16 17 18 19 20 21 22 23 24 25 26 27 28 29 30 31 32 33 34 35 36 37 38 39 40 41 42 43 44 45 46 47 48 49 50

000
ASUS43 KDMX 262007
RWRIA

WEATHER ROUNDUP FOR IOWA
NATIONAL WEATHER SERVICE DES MOINES IA
200 PM CST MON JAN 26 2015

NOTE: "FAIR" INDICATES FEW OR NO CLOUDS BELOW 12,000 FEET WITH NO
SIGNIFICANT WEATHER AND/OR OBSTRUCTIONS TO VISIBILITY.

* - THESE STATIONS ARE NOT NWS STATIONS...THUS NOT UNDER NWS
QUALITY CONTROL.  THEY ALSO DO NOT REPORT WEATHER SUCH
AS PRECIPITATION OR FOG.

IAZ001>003-012>014-020>022-031>034-043>046-262100-
   NORTHWEST IOWA

CITY           SKY/WX    TMP DP  RH WIND       PRES   REMARKS
CARROLL *      SUNNY     50  39  66 NW24G30   29.86R
CHEROKEE *     SUNNY     46  41  81 NW12G20   29.88S
DENISON *      SUNNY     50  39  66 NW20G28   29.87S
LE MARS *      SUNNY     50  41  71 NW13G21   29.91S
ORANGE CITY *  SUNNY     48  39  71 NW17G23   29.89R
SHELDON *      SUNNY     45  41  87 NW23      29.86S
SIOUX CITY     SUNNY     53  39  59 NW20      29.91F
SPENCER        SUNNY     47  38  71 NW21G31   29.85R
STORM LAKE *   SUNNY     46  39  76 NW22G29   29.87R
$$

IAZ055>058-069>071-079>083-090>094-262100-
   SOUTHWEST IOWA

CITY           SKY/WX    TMP DP  RH WIND       PRES   REMARKS
ATLANTIC *     SUNNY     52  39  62 NW17G24   29.88S
AUDUBON *      SUNNY     52  39  62 NW10G22   29.89R
CLARINDA *     SUNNY     57  36  44 NW18G28   29.91S
COUNCIL BLFS * SUNNY     54  39  58 NW17G25   29.90S
CRESTON *      SUNNY     52  39  62 NW24G30   29.86R
HARLAN  *      SUNNY     52  41  66 NW24      29.93S
LAMONI         SUNNY     53  37  54 NW20G29   29.84S
RED OAK *      SUNNY     55  36  47 NW18G28   29.90F
SHENANDOAH *   SUNNY     59  36  41 NW15G22   29.92S
$$

IAZ047>049-059>061-072>074-084-262100-
   CENTRAL IOWA

CITY           SKY/WX    TMP DP  RH WIND       PRES   REMARKS
AMES           SUNNY     50  36  58 NW16G23   29.80S
ANKENY *       SUNNY     50  36  57 NW12G25   29.82R
CHARITON *     SUNNY     50  37  62 NW21      29.82R
DES MOINES     MOSUNNY   52  36  54 NW20G26   29.82S
GRINNELL*      SUNNY     45  37  76 NW17G23   29.78S
KNOXVILLE *    SUNNY     48  36  61 NW15      29.79S
MARSHALLTOWN   SUNNY     46  38  73 NW18      29.77R
PELLA *        SUNNY     48  37  66 NW18G24   29.81S
PERRY *          N/A     50  37  62 NW16G22   29.84S
$$

IAZ004>006-015-016-023>025-035-036-262100-
   NORTH CENTRAL IOWA

CITY           SKY/WX    TMP DP  RH WIND       PRES   REMARKS
ALGONA *       SUNNY     46  39  76 NW16      29.80S
CLARION *      SUNNY     45  41  87 NW16G26   29.78S
ESTHERVILLE    SUNNY     46  38  73 NW23G30   29.81R
FORT DODGE *   SUNNY     48  37  66 NW10G18   29.82R
MASON CITY     MOSUNNY   45  37  73 NW18      29.77R
FOREST CITY *  MOSUNNY   45  34  65 NW16G24   29.77R
IOWA FALLS *     N/A     46  39  76 NW17G24   29.78R
$$

IAZ007>011-017>019-026>030-037>042-050>054-066-262100-
   NORTHEAST IOWA

CITY           SKY/WX    TMP DP  RH WIND       PRES   REMARKS
CEDAR RAPIDS   CLOUDY    34  31  88 SW6       29.76F WCI  29
CHARLES CITY * PTSUNNY  N/A N/A N/A MISG      29.75R
CLINTON *      CLOUDY    27  21  80 S8        29.84R WCI  18
DECORAH *      CLOUDY    34  30  86 W5        29.71F WCI  30
DUBUQUE        CLOUDY    24  22  91 S10       29.76F FOG     WCI  14
MONTICELLO *   CLOUDY    30  30 100 S7        29.77S WCI  23
OELWEIN *      CLOUDY    34  32  93 VRB5      29.75S WCI  30
WATERLOO       MOSUNNY   45  37  73 NW13      29.74F
$$

IAZ064-065-067-068-078-262100-
   EAST CENTRAL IOWA

CITY           SKY/WX    TMP DP  RH WIND       PRES   REMARKS
DAVENPORT      CLOUDY    29  24  82 S12       29.80F WCI  19
IOWA CITY      CLOUDY    34  31  88 S6        29.80F WCI  29
MT. PLEASANT * CLOUDY    34  32  93 S7        29.80F WCI  28
MUSCATINE *    CLOUDY    34  30  86 S10       29.81F WCI  26
QUAD CITIES    CLOUDY    29  25  85 S7        29.81S WCI  22
$$

IAZ062-063-075>077-085>089-095>099-262100-
   SOUTHEAST IOWA

CITY           SKY/WX    TMP DP  RH WIND       PRES   REMARKS
BURLINGTON     CLOUDY    34  31  88 S10       29.80F WCI  26
FAIRFIELD *    PTSUNNY   43  36  75 W13       29.79F
FORT MADISON * CLOUDY    36  34  93 S8        29.81F WCI  29
KEOKUK *       CLOUDY    36  32  87 SE5       29.81F WCI  32
OSKALOOSA *      N/A     45  39  81 NW16G22   29.79F
CENTERVILLE *  SUNNY     48  37  66 W16       29.82F
OTTUMWA        MOSUNNY   46  36  68 NW15      29.79S
WASHINGTON *   CLOUDY    37  37 100 SW5       29.79F WCI  34
$$

ABBREVIATIONS USED IN REMARKS
   TC - TEMPERATURES IN CELSIUS
  WCI - WIND CHILL INDEX
   HX - HEAT INDEX
  VSB - VISIBILITY
$$



USA.gov is the U.S. government's official web portal to all federal, state and local government web resources and services.